Вернуться в каталог

COSMOS 416

АктивенВоенныеLEO
NORAD 5215·PAYLOAD·🇷🇺 Russia

Запущен May 7, 1971 с Plesetsk Cosmodrome

Loading…

Ближайшие Пролёты (ближайшие 24 часа)

TLE

СвежийSource: Space-Track

Эпоха: Sep 14, 2026, 10:50 UTC

1 05215U 71041F   26257.45190381  .00000009  00000-0  15270-3 0  9996
2 05215  74.0162 155.0201 0077958 257.3470 276.7858 12.58072766542012

Отслеживайте COSMOS 416 в реальном времени с AllMySat

Download on the App Store